Погода в Геджухе

Россия / Республика Дагестан     42°07′34″N   48°03′54″E
темп.,
°C
ветер,
м/с
пор.,
м/с
влажн.,
%
обл.,
%
осадки,
мм/ч
давл.,
гПа
погр.,
м
12 мая, ср
ср1200:00+9юз11820 0.0 101518
03:00+8зюз11800 0.0 101518
06:00+10з11720 0.0 1016100
09:00+15с43590 0.0 1015760
12:00+17ссв55570 0.0 1016898
15:00+17ссв55590 0.0 1015744
18:00+14с34710 0.0 1016349
21:00+11з12854 0.0 101641
13 мая, чт
чт1300:00+11юз11850 0.0 101512
03:00+10ююз11840 0.0 101511
06:00+13ююв12750 0.0 101582
09:00+20в33580 0.0 1014510
12:00+21в43530 0.0 1014562
15:00+22в32527 0.0 1014483
18:00+17в11662 0.0 1014124
21:00+14зсз01793 0.0 101511
14 мая, пт
пт1400:00+14ююв11784 0.0 101511
03:00+14ю11775 0.0 101511
06:00+18ю11625 0.0 101531
09:00+24вюв34465 0.0 1015451
12:00+28вюв693417 0.0 1014900
15:00+27вюв593699 0.0 1014856
18:00+22вюв345293 0.0 101483
21:00+19ююз125795 0.0 101424
15 мая, сб
сб1500:00+17ю11622 0.0 101418
03:00+17ююз12590 0.0 101313
06:00+20ююз11550 0.0 101425
09:00+27вюв48250 0.0 1013788
12:00+29вюв69200 0.0 10131140
15:00+28вюв69190 0.0 10131049
18:00+23вюв23360 0.0 101355
21:00+19зюз22360 0.0 101413
16 мая, вс
вс1600:00+17юз11410 0.0 101312
03:00+17юз11460 0.0 101211
06:00+20ююз11470 0.0 101231
09:00+27юв48260 0.0 1011886
12:00+29вюв710240 0.0 10091199
15:00+28вюв711240 0.0 10081112
18:00+24вюв36380 0.0 1007191
21:00+17вюв11600 0.0 100736